#timestamp,LO_Frequency,Hit,StdDev 
1542308415.5,286047005.0,N
1542308435.3,286047003.8,N
1542308455.1,286047001.8,N
1542308475.9,286047000.5,N
1542308495.7,286046998.3,N
1542308515.5,286046996.9,N
1542308535.4,286046997.6,N
1542308555.2,286046998.0,N
1542308575.1,286046998.0,N
1542308576.0,286046998.0,N
1542308595.8,286046997.6,N
1542308615.6,286046998.3,N
1542308635.5,286046998.6,N
1542308655.3,286046998.9,N
1542308675.1,286046999.0,N
1542308695.9,286046997.5,N
1542308715.7,286046998.1,N
1542308735.6,286047000.5,N
1542308755.4,286047004.1,N
1542308775.2,286047000.2,N
1542308795.1,286046997.1,N
1542308796.0,286046997.1,N
1542308815.8,286046998.0,N
1542308835.6,286046994.9,N
1542308855.5,286046995.2,N
1542308875.3,286046995.6,N
1542308895.2,286046997.9,N
1542308915.9,286046996.2,N
1542308935.7,286046993.7,N
1542308955.6,286046996.0,N
1542308975.4,286046995.6,N
1542308995.2,286046998.0,N
1542309015.1,286046996.9,N
1542309016.0,286046996.9,N
1542309035.8,286046997.7,N
1542309055.7,286046999.5,N
1542309075.5,286046995.5,N
1542309095.3,286046996.4,N
1542309115.2,286046996.1,N
1542309135.0,286046994.7,N
1542309135.9,286046994.7,N
1542309155.7,286046994.6,N
1542309175.6,286046992.1,Y
1542309195.4,286046995.8,P
1542309215.3,286046996.9,P
1542309235.1,286046999.4,N
1542309255.8,286046998.6,N
1542309275.7,286046999.3,N
1542309295.5,286046999.4,N
1542309315.4,286046998.8,N
1542309335.2,286047002.0,N
1542309355.0,286047003.7,N
1542309355.9,286047003.7,N
1542309375.8,286047001.6,N
1542309395.6,286047001.6,N
1542309415.4,286047003.3,N
1542309435.3,286047003.7,N
1542309455.1,286047006.0,N
1542309475.9,286047003.8,N
1542309495.7,286047004.1,N
1542309515.5,286047007.3,N
1542309535.4,286047005.9,N
1542309555.2,286047002.9,N
1542309575.0,286047005.5,N
1542309575.9,286047005.5,N
1542309595.8,286047002.9,N
1542309615.6,286047005.7,N
1542309635.4,286047006.5,N
1542309655.3,286047006.6,N
1542309675.1,286047010.4,Y
1542309695.9,286047009.9,P
1542309715.7,286047008.9,N
1542309735.5,286047006.5,N
1542309755.4,286047005.9,N
1542309775.2,286047003.4,N
1542309795.0,286047003.8,N
1542309796.0,286047003.8,N
1542309815.8,286047001.4,N
1542309835.6,286047001.4,N
1542309855.5,286047003.7,N
1542309875.3,286047004.9,N
1542309895.1,286047003.1,N
1542309915.9,286047005.7,N
1542309935.7,286047007.3,N
1542309955.5,286047004.6,N
1542309975.4,286047004.8,N
1542309995.2,286047004.9,N
1542310015.1,286047005.0,N
1542310016.0,286047005.0,N
1542310035.8,286047005.4,N
1542310055.6,286047005.9,N
1542310075.5,286047002.9,N
1542310095.3,286047004.0,N
1542310115.1,286047003.4,N
1542310135.9,286047003.6,N
1542310155.7,286047002.0,N
1542310175.6,286047000.2,N
1542310195.4,286047001.6,N
1542310215.2,286047001.6,N
1542310235.1,286047000.5,N
1542310236.0,286047000.5,N
1542310255.8,286046999.9,N
1542310275.6,286046999.7,N
1542310295.5,286047000.0,N
1542310315.3,286046998.8,N
1542310335.2,286046999.4,N
1542310355.9,286046999.6,N
1542310375.7,286046998.3,N
1542310395.6,286047001.0,N
1542310415.4,286046999.7,N
1542310435.2,286047000.4,N
1542310455.1,286047000.1,N
1542310456.0,286047000.1,N
1542310475.8,286047000.4,N
1542310495.7,286046998.6,N
1542310515.5,286047002.8,N
1542310535.3,286047001.6,N
1542310555.2,286046999.8,N
1542310575.0,286047000.9,N
1542310575.9,286047000.9,N
1542310595.7,286047002.8,N
1542310615.6,286047004.2,N
1542310635.4,286047005.7,Y
1542310655.3,286047001.7,P
1542310675.1,286047006.9,P
1542310676.0,286047006.9,N
1542310695.8,286047006.6,N
1542310715.7,286047008.7,Y
1542310735.5,286047006.0,P
1542310755.3,286047002.9,P
1542310775.2,286047004.6,P
1542310795.0,286047007.3,Y
1542310795.9,286047007.3,P
1542310815.8,286047005.8,P
1542310835.6,286047006.4,P
1542310855.4,286047010.0,Y
1542310875.3,286047006.1,P
1542310895.1,286047006.7,P
1542310915.9,286047008.8,P
1542310935.7,286047010.7,Y
1542310955.5,286047003.7,P
1542310975.4,286047004.8,N
1542310995.2,286047007.2,P
1542311015.0,286047008.9,Y
1542311015.9,286047008.9,P
1542311035.8,286047005.6,P
1542311055.6,286047004.7,P
1542311075.5,286047004.7,N
1542311095.3,286047004.7,Y
1542311115.1,286047000.7,P
1542311135.9,286046998.2,N
1542311155.7,286046998.4,N
1542311175.5,286047001.1,N
1542311195.4,286047002.6,N
1542311215.2,286046999.8,N
1542311235.1,286047002.6,N
1542311236.0,286047002.6,N
1542311255.8,286047003.7,N
1542311275.6,286047005.2,N
1542311295.5,286047005.0,N
1542311315.3,286047005.1,N
1542311335.1,286047006.0,N
1542311355.9,286047005.0,N
1542311375.7,286047005.0,N
1542311395.6,286047006.8,N
1542311415.4,286047006.1,N
1542311435.2,286047010.3,Y
1542311455.1,286047010.7,P
1542311456.0,286047010.7,N
1542311475.8,286047013.3,P
1542311495.7,286047013.6,Y
1542311515.5,286047005.4,P
1542311535.3,286047004.9,N
1542311555.2,286047012.0,P
1542311575.9,286047012.8,Y
1542311595.7,286047003.6,P
1542311615.6,286047005.7,N
1542311635.4,286047002.9,N
1542311655.3,286047004.4,N
1542311675.1,286047001.6,N
1542311676.0,286047001.6,N
1542311695.8,286047003.2,N
1542311715.7,286047004.9,N
1542311735.5,286047006.2,Y
1542311755.3,286047005.8,P
1542311775.2,286047004.7,P
1542311795.0,286047008.0,P
1542311795.9,286047008.0,Y
1542311815.8,286047003.5,P
1542311835.6,286047005.7,P
1542311855.4,286047002.9,N
1542311875.3,286047006.4,Y
1542311895.1,286047002.3,P
1542311915.9,286047001.8,N
1542311935.7,286046999.9,N
1542311955.5,286047000.6,N
1542311975.4,286046999.8,N
1542311995.2,286047001.5,N
